Location: Bottenau
(48.5138°N, 8.0462°E)
Time: 08:44:17
(UTC+00:00)

Lacrosse 5 rocket - Pass Details

Date: 18 April 2021
Orbit: 461 x 633 km, 57.0° (Epoch: 05 May)

Event Time Altitude Azimuth Distance (km) Brightness Sun altitude
Rises 22:44:37 0° 305° (NW) 2,786 5.5 -29.6°
Reaches altitude 10° 22:46:53 10° 311° (NW) 1,913 4.7 -29.7°
Enters shadow 22:49:51 37° 339° (NNW) 945 2.9 -29.8°
